Home > Weather > Gladbeck > Past weeks

Flag for Germany Weather for the Past 2 Weeks in Gladbeck, North Rhine-Westphalia, Germany

Now
45 °F

Clear.


Feels Like: 43 °F
Forecast: 38 / 65 °F
Wind: 3 mph from North

Location: Duesseldorf

Current Time: May 1, 2016 at 11:27:37 PM

Latest Report: May 1, 2016 at 10:50 PM


Visibility: 10 mi

Pressure: 30.33 "Hg

Humidity: 87%

Dew Point: 41 °F

Location of GladbeckLocation

Historic Weather in Gladbeck — Graph

°F

Gladbeck Temperature Yesterday

Maximum temperature yesterday: 50 °F (at 2:50 PM)
Minimum temperature yesterday: 43 °F (at 4:20 AM)
Average temperature yesterday: 46 °F

High & Low Weather Summary for the Past Weeks

 TemperatureHumidityPressure
High68 °F (Apr 21, 3:50 PM)100% (Apr 18, 12:20 AM)30.48 "Hg (Apr 18, 12:20 AM)
Low32 °F (Apr 18, 5:20 AM)34% (Apr 20, 4:50 PM)29.50 "Hg (Apr 26, 8:20 AM)
Average46 °F73%30.01 "Hg
* Reported Apr 16 10:20 PM — May 1 10:20 PM, Gladbeck, Weather by CustomWeather, © 2016

Note: Actual official high and low records may vary slightly from our data, if they occured in-between our weather recording intervals... More about our weather records

Advertising

Gladbeck Weather History for the Previous 24 Hours

Scroll right to see more
 ConditionsComfort  
Time TempWeatherWind HumidityBarometerVisibility
10:20 PM
Sun, May 1
48 °FClear.3 mph76%30.33 "Hg10 mi
9:50 PM50 °FSunny.7 mph76%30.33 "Hg10 mi
9:20 PM50 °FSunny.7 mph76%30.30 "Hg10 mi
8:50 PM52 °FSunny.8 mph72%30.30 "Hg10 mi
8:20 PM54 °FSunny.8 mph72%30.30 "Hg10 mi
7:50 PM55 °FPassing clouds.10 mph63%30.30 "HgN/A
7:20 PM55 °FPassing clouds.13 mph67%30.30 "HgN/A
6:50 PM57 °FPassing clouds.15 mph63%30.30 "HgN/A
6:20 PM57 °FPassing clouds.13 mph63%30.27 "HgN/A
5:50 PM59 °FPassing clouds.8 mph55%30.27 "HgN/A
5:20 PM59 °FPassing clouds.10 mph51%30.27 "HgN/A
4:50 PM59 °FPassing clouds.10 mph51%30.27 "HgN/A
4:20 PM59 °FPassing clouds.13 mph55%30.27 "HgN/A
3:50 PM59 °FPassing clouds.14 mph55%30.27 "HgN/A
3:20 PM57 °FPassing clouds.14 mph55%30.27 "HgN/A
2:50 PM57 °FPassing clouds.13 mph55%30.27 "HgN/A
2:20 PM57 °FPassing clouds.14 mph55%30.27 "HgN/A
1:50 PM55 °FPassing clouds.15 mph59%30.27 "HgN/A
1:20 PM54 °FPassing clouds.14 mph58%30.27 "HgN/A
12:50 PM52 °FPassing clouds.14 mph67%30.30 "HgN/A
12:20 PM52 °FPassing clouds.13 mph62%30.30 "HgN/A
11:50 AM48 °FScattered clouds.10 mph71%30.30 "HgN/A
11:20 AM50 °FBroken clouds.14 mph71%30.30 "HgN/A
10:50 AM46 °FPartly sunny.9 mph76%30.30 "HgN/A
10:20 AM46 °FBroken clouds.10 mph76%30.30 "HgN/A
9:50 AM45 °FBroken clouds.10 mph81%30.27 "HgN/A
8:50 AM43 °FBroken clouds.9 mph93%30.27 "HgN/A
8:20 AM43 °FLight rain. Broken clouds.12 mph93%30.27 "HgN/A
7:50 AM43 °FLight rain. Broken clouds.10 mph93%30.27 "HgN/A
7:20 AM43 °FLight rain. More clouds than sun.13 mph87%30.24 "HgN/A
6:20 AM43 °FLight rain. Passing clouds.9 mph87%30.24 "HgN/A
5:50 AM43 °FPassing clouds.9 mph87%30.24 "HgN/A
5:20 AM43 °FPassing clouds.9 mph87%30.24 "HgN/A
4:20 AM43 °FPassing clouds.8 mph87%30.21 "HgN/A
3:50 AM43 °FClear.9 mph87%30.21 "Hg10 mi
3:20 AM43 °FClear.10 mph87%30.21 "Hg10 mi
2:50 AM43 °FClear.10 mph87%30.21 "Hg10 mi
2:20 AM43 °FClear.9 mph81%30.21 "Hg10 mi
1:50 AM43 °FPassing clouds.10 mph81%30.21 "HgN/A
1:20 AM45 °FPassing clouds.12 mph76%30.21 "HgN/A
12:50 AM45 °FPassing clouds.12 mph76%30.18 "HgN/A
12:20 AM45 °FPassing clouds.12 mph81%30.18 "HgN/A
11:50 PM
Sat, Apr 30
46 °FClear.10 mph76%30.18 "Hg10 mi
11:20 PM46 °FClear.10 mph76%30.18 "Hg10 mi
Weather by CustomWeather, © 2016

See weather overviewHow to use our weather pages